Погода Назимово

Погода Назимово : погода сейчас, прогноз погоды и архив. Всё, что Вы хотите узнать о погоде Назимово!

Поиск расширенной информации на нашем сайте:

Другие новости

Новости СМИ2

Главная страница сайта

Новости сайта

03.07.2017

Напоминаем, что на нашем специализированном сайте Метеоцентр.Азия вы можете получить высокодетализированные автоматические прогнозы погоды по пунктам России, СНГ и мира в авиационном формате (включающие направление и скорость ветра, видимость, явления погоды, количество и форму облачности, нижнюю и верхнюю границу облачности).


Погода Назимово - сегодня

Время (UTC), дата Ветер
(°,м/с) 
Видим.   Явления Облачность Т
(°С)
Тd
(°С)
f(%) Тe
(°С)
Pmin
(гПа)
dP
(гПа)
Po
(мм)
O2
(г/м3)
Тmin Tmax R s Состояние
почвы
18 19.10.17 160 (Ю) н/о    ясно 
-0.1 -5.3 68 -1  1019.4  -0.6  758  306           
21 19.10.17 150 (ЮВ) н/о    10/10 2000 м 
[Ac As]
+1 -3.9 70 -1  1018.8  -0.6  758  305           
00 20.10.17 160 (Ю) н/о    10/10 2000 м 
[Ac As]
+0.7 -2.9 77 -2  1018.3  -0.5  757  305  -1.6        замёрзшая 
03 20.10.17 150 (ЮВ) 20000 м    10/10 2000 м 
[Ac As]
+0.9 -1.8 82 1017.8  -0.5  757  304           
06 20.10.17 140 (ЮВ) 20000 м  {ливн. осадки}  10/10 600 м кучево-дожд. 
[Cb calv]
+0.8 -1.3 86 -2  1017.1  -0.7  757  304           
09 20.10.17 150 (ЮВ) 20000 м    10/10 1000 м 
[Sc]
+1 -1.3 85 -1  1016.2  -0.9  756  304           
12 20.10.17 150 (ЮВ) н/о    10/10 600 м кучево-дожд. 
[Cb cap]
+0.8 -1.2 86 -2  1015.2  -1  755  304    +1.2  0.0     
15 20.10.17 140 (ЮВ) н/о  слаб. ливневой дождь со снегом  10/10 600 м кучево-дожд. 
[Cb cap]
+0.5 -0.9 90 -2  1013.4  -1.8  754  303           
18 20.10.17 150 (ЮВ) н/о  {ливн. осадки}  10/10 600 м кучево-дожд. 
[Cb cap]
+0.6 -0.5 92 -2  1010.8  -2.6  752  302           
21 20.10.17 150 (ЮВ) 6{11}  н/о    10/10 600 м кучево-дожд. 
[Cb cap]
+1.4 +0.3 92 -2  1007.9  -2.8  750  300           
00 21.10.17 150 (ЮВ) 4{11}  н/о  слаб. ливневой дождь  10/10 600 м кучево-дожд. 
[Cb cap]
+2.3 +2 98 1004.5  -3.4  747  298  +0.5      влажная 
03 21.10.17 170 (Ю) 10 км  слаб. ливневой дождь  10/10 600 м кучево-дожд. 
[Cb cap]
+2.8 +2.5 98 +1  1004.8  0.3  747  298           
06 21.10.17 220 (ЮЗ) 20000 м  {ливн. осадки}  10/10 600 м кучево-дожд. 
[Cb cap]
+5 +2.3 83 +4  1005.9  1.5  748  296           
09 21.10.17 180 (Ю) 20000 м  {ливн. осадки}  10/10 600 м кучево-дожд. 
[Cb cap]
+4.8 +3.1 89 +4  1006.2  0.3  749  296           
12 21.10.17 140 (ЮВ) н/о  {ливн. осадки}  3/0 верхняя 
[Ci fib]
+1 +0.7 98 -1  1006.7  0.4  749  300    +6     
15 21.10.17 200 (Ю) н/о    4/0 верхняя 
[Ci fib]
+0.8 +0.3 96 +1  1007.1  0.4  749  301           
18 21.10.17 140 (ЮВ) н/о    5/0 верхняя 
[Ci fib]
-0.2 -0.5 98 -1  1007.8  0.6  750  302           
21 21.10.17 150 (ЮВ) н/о    н/о 
+0.5 -0.3 94              
00 22.10.17 150 (ЮВ) н/о    10/10 600 м кучево-дожд. 
[Cb cap]
+0.4 -0.2 96 1007.9  0.1  750  302  -0.3        замёрзшая 
03 22.10.17 140 (ЮВ) 10 км  слаб. ливневой дождь  10/10 600 м кучево-дожд. 
[Cb cap]
+1.6 +1.3 98 +1  1007.5  -0.3  749  300           
06 22.10.17 280 (З) 10 км  слаб. ливневой дождь со снегом  10/10 600 м кучево-дожд. 
[Cb cap]
+0.6 +0.6 100 1007.7  0.1  749  301           
09 22.10.17 120 (ЮВ) 20000 м  {ливн. осадки}  10/3 600 м кучево-дожд., средняя 
[Cb cap|Ac As]
+1.4 +0.9 96 1007.1  -0.5  749  300           
12 22.10.17 160 (Ю) н/о  {ливн. осадки}  10/6 600 м кучево-дожд., средняя 
[Cb cap|Ac As]
+0.4 +0.4 100 +1  1007.4  0.2  749  301    +3     
15 22.10.17 280 (З) н/о  {ливн. осадки}  10/10 600 м кучево-дожд. 
[Cb cap]
+0 -0.2 99 +1  1007.4  749  302           
18 22.10.17 100 (В) 0200 м  {ливн. осадки}  10/10 600 м кучево-дожд. 
[Cb cap]
-1.2   1008.2  0.8  750             
Время (UTC), дата Ветер
(°,м/с) 
Видим.   Явления Облачность Т
(°С)
Тd
(°С)
f(%) Тe
(°С)
Pmin
(гПа)
dP
(гПа)
Po
(мм)
O2
(г/м3)
Тmin Tmax R s Состояние
почвы

Для получения пояснительной информации подведите курсор к названию столбца.

ПОГОДА Назимово - архив

Всё, что Вы хотите узнать о погоде Назимово - удобно и подробно!

Выберите нужную дату (начиная с 1 января 2015* года) и нажмите кнопку "Найти".
Будут отображены архивные сводки погоды по пункту Назимово, начиная с указанной даты.


Отображать данные в формате CSV (для использования в таблицах Excel)


Внимание! Наш архив погоды предназначен исключительно для личного некоммерческого использования в познавательных целях. Если Вам необходимы официальные справки о состоянии погоды (для производственных, юридических, коммерческих и т.п. целей), обращайтесь в органы Росгидромета.

*Примечание: данная дата относится к архиву по метеостанциям СССР (Россия, СНГ, Балтия).
Архив по метеостанциям Зарубежной Европы и Азии (кроме Китая) хранится 10 дней, по другим регионам земного шара (Китай, Африка, Америка, Австралия, Океания) - 1 день.

Назимово - район местоположения метеостанции


Название, широта, долгота, высота метеостанции:
Назимово 59.5°ш. 91°д. 67 м над ур. моря [Российская Федерация]

Дополнительная информация

В oтличие oт бoльшинства пoгoдных сайтoв мы публикуем пoдрoбную метеoинфoрмацию в детальнoм прoфессиoнальнoм фoрмате.

Характеристики температуры и влажнoсти вoздуха измеряются на высoте 2 м в тени вдали oт зданий и деревьев.
Скoрoсть ветра измеряется на высoте 10 м (на урoвне рoста челoвека скoрoсть ветра ниже в 1.5-2 раза). Если метеoстанция нахoдится в гoрoде или в лесу, тo скoрoсть ветра занижена на 2-4 м/с пo сравнению с oткрытым местoм. Скoрoсть ветра над акватoриями крупных рек и oзёр, а также на вершинах хoлмoв на 2-5 м/с выше, чем в oбычных услoвиях.
Атмoсфернoе давление в разных тoчках местнoсти мoжет значительнo oтличаться oт давления на метеoстанции, в зависимoсти oт услoвий рельефа (при пoдъёме на 10 м давление пoнижается примернo на 1 мм рт.ст.).